Regional Weather Roundup
Issued by NWS

Home | Current Version | Previous Version | Graphics & Text | Print | Product List | Glossary On
Versions: 1 2 3 4 5 6 7 8 9 10 11 12 13 14 15 16 17 18 19 20 21 22 23 24 25 26 27 28 29 30 31 32 33 34 35 36 37 38 39 40 41 42 43 44 45 46 47 48 49 50
000
ASUS43 KBIS 221702
RWRND

NORTH DAKOTA REGIONAL WEATHER ROUNDUP
NATIONAL WEATHER SERVICE BISMARCK ND
1100 AM CST SUN JAN 22 2017

NOTE: "FAIR" INDICATES FEW OR NO CLOUDS BELOW 12,000 FEET WITH NO
SIGNIFICANT WEATHER AND/OR OBSTRUCTIONS TO VISIBILITY.


NDZ001>003-009>011-017-221800-
NORTHWEST NORTH DAKOTA

CITY           SKY/WX    TMP DP  RH WIND       PRES   REMARKS
WILLISTON      CLOUDY    30  27  88 W12       29.81R
MINOT          CLOUDY    32  29  88 W13       29.75R
MINOT AFB      CLOUDY    30  27  89 W15       29.74R WCI  19
$$

NDZ018>021-031>035-040>046-221800-
SOUTHWEST NORTH DAKOTA

CITY           SKY/WX    TMP DP  RH WIND       PRES   REMARKS
BISMARCK       CLOUDY    31  28  89 W9        29.80R
DICKINSON      CLOUDY    25  24  96 NW18      29.78R FOG     WCI  11
GARRISON         N/A     31  28  89 W10       29.77R
HETTINGER ARPT CLOUDY    25  22  88 W14       29.83R WCI  13
$$

NDZ004>008-012>016-024-026-027-054-221800-
NORTHEAST NORTH DAKOTA

CITY           SKY/WX    TMP DP  RH WIND       PRES   REMARKS
GRAND FORKS    CLOUDY    35  30  82 W7        29.74R
GRND FRKS AFB  CLOUDY    33  29  85 NW8       29.74R
DEVILS LAKE    CLOUDY    29  27  92 NW14      29.72R WCI  18
$$

NDZ022-023-025-028>030-036>039-047>053-221800-
SOUTHEAST NORTH DAKOTA

CITY           SKY/WX    TMP DP  RH WIND       PRES   REMARKS
FARGO          CLOUDY    35  32  88 W9        29.76R FOG
JAMESTOWN      CLOUDY    32  29  88 NW13      29.74R
$$





USA.gov is the U.S. government's official web portal to all federal, state and local government web resources and services.